Simultaneous Nadir Overpasses (SNOs) Predictions

Prediction of SNOs between NOAA-20 and AQUA Satellite Orbit:

Table of predicted SNOs for the next 14.0 days since TLE Epoch: 6/17/2023
Index Date (NOAA-20) Time (NOAA-20) Lat,Lon (NOAA-20) SZA (NOAA-20 ) Date (AQUA) Time (AQUA) Lat,Lon (AQUA) SZA (AQUA ) Distance(km) Time Diff (sec)
1 06/17/2023 08:27:57 79.46, -50.46 69.51 06/17/2023 08:29:10 79.33, -49.64 69.36 22.74 73
2 06/17/2023 09:18:02 -80.60, 129.07 112.77 06/17/2023 09:17:57 -80.60, 129.05 112.77 0.40 5
3 06/19/2023 23:02:45 80.55, 102.16 67.33 06/19/2023 23:03:35 80.55, 102.01 67.32 2.94 50
4 06/19/2023 23:53:27 -80.63, -89.42 112.87 06/19/2023 23:52:57 -80.63, -89.43 112.84 0.44 30
5 06/22/2023 13:38:10 80.60,-116.05 67.23 06/22/2023 13:38:34 80.60,-116.11 67.23 1.15 24
6 06/22/2023 14:28:53 -80.65, 52.07 112.91 06/22/2023 14:27:57 -80.65, 52.15 112.88 1.42 56
7 06/25/2023 03:25:23 -74.84,-175.64 104.18 06/25/2023 03:26:36 -74.37,-172.96 104.52 94.84 73
8 06/25/2023 04:13:37 80.60, 25.04 67.30 06/25/2023 04:13:34 80.60, 25.18 67.28 2.57 3
9 06/27/2023 17:58:20 -80.58, -1.35 112.56 06/27/2023 17:59:10 -80.58, -1.43 112.58 1.38 50
10 06/27/2023 18:49:02 80.63, 166.77 67.31 06/27/2023 18:48:32 80.64, 166.86 67.32 1.62 30
11 06/30/2023 08:33:44 -80.62, 140.36 112.50 06/30/2023 08:34:06 -80.62, 140.34 112.51 0.44 22



Historial Predications of SNOs between NOAA-20 and AQUA
